Concord, NH

8:34 PM EST on February 11, 2016 (GMT -0500)
Concord Municipal

Weather History for KCON - May, 2013

Change the Weather History Date:

Tuesday, May 14, 2013

  Actual Average Record
Temperature  
Mean Temperature 46 °F 55 °F  
Max Temperature 60 °F 68 °F 91 °F (1961)
Min Temperature 31 °F 42 °F 26 °F (1996)
Degree Days  
Heating Degree Days 19 10  
Month to date heating degree days 133 170  
Since 1 July heating degree days 6635 7017  
Cooling Degree Days 0 0  
Month to date cooling degree days 3 0  
Year to date cooling degree days 3 2  
Moisture  
Dew Point 28 °F    
Average Humidity 60    
Maximum Humidity 96    
Minimum Humidity 24    
Precipitation  
Precipitation 0.00 in 0.10 in 2.43 in (2006)
Month to date precipitation 0.57 1.57  
Year to date precipitation 9.26 13.57  
Snow  
Snow 0.00 in 0.00 in 0.00 in (2002)
Month to date snowfall 0.0 0.2  
Since 1 July snowfall 83.4 61.6  
Snow Depth 0.00 in    
Sea Level Pressure  
Sea Level Pressure 30.02 in    
Wind  
Wind Speed 8 mph (NW)    
Max Wind Speed 20 mph    
Max Gust Speed 26 mph    
Visibility 10 miles    
Events      
T = Trace of Precipitation, MM = Missing Value Source: NWS Daily Summary

Daily Weather History Graph

Daily Weather History Graph

Search for Another Location

Airport or City:

Trip Planner

Search our weather history database for the weather conditions in past years. The results will help you decide how hot, cold, wet, or windy it might be!

Date:

Astronomy

May. 14, 2013 Rise Set
Actual Time 5:23 AM EDT 8:02 PM EDT
Civil Twilight 4:50 AM EDT 8:35 PM EDT
Nautical Twilight 4:09 AM EDT 9:16 PM EDT
Astronomical Twilight 3:22 AM EDT 10:03 PM EDT
Moon 9:00 AM EDT (5/14) 11:46 PM EDT (5/14)
Length of Visible Light 15h 44m
Length of Day
14h 39m
Waxing Crescent, 19% of the Moon is Illuminated
May 14
Waxing Crescent
May 18
First Quarter
May 25
Full
May 31
Last Quarter
Jun 8
New

Hourly Weather History & Observations

Time (EDT) Temp. Windchill Dew Point Humidity Pressure Visibility Wind Dir Wind Speed Gust Speed Precip Events Conditions
12:51 AM 39.0 °F 34.8 °F 32.0 °F 76% 30.03 in 10.0 mi NNW 5.8 mph - N/A   Clear
1:51 AM 37.0 °F - 32.0 °F 82% 30.04 in 10.0 mi Calm Calm - N/A   Clear
2:51 AM 34.0 °F - 30.9 °F 89% 30.04 in 10.0 mi Calm Calm - N/A   Clear
3:51 AM 33.1 °F - 30.9 °F 92% 30.03 in 10.0 mi Calm Calm - N/A   Mostly Cloudy
4:51 AM 33.1 °F - 32.0 °F 96% 30.04 in 10.0 mi Calm Calm - N/A   Overcast
5:51 AM 39.0 °F 36.8 °F 34.0 °F 82% 30.05 in 10.0 mi WNW 3.5 mph - N/A   Overcast
6:51 AM 42.1 °F - 34.0 °F 73% 30.06 in 10.0 mi Calm Calm - N/A   Overcast
7:51 AM 46.0 °F 41.4 °F 34.0 °F 63% 30.06 in 10.0 mi NW 9.2 mph - N/A   Clear
8:51 AM 50.0 °F - 30.9 °F 48% 30.06 in 10.0 mi North 13.8 mph 21.9 mph N/A   Clear
9:51 AM 48.0 °F - 28.0 °F 46% 30.05 in 10.0 mi NNW 9.2 mph 21.9 mph N/A   Overcast
10:51 AM 52.0 °F - 27.0 °F 38% 30.04 in 10.0 mi NW 13.8 mph - N/A   Scattered Clouds
11:51 AM 55.0 °F - 25.0 °F 31% 30.02 in 10.0 mi NW 15.0 mph 19.6 mph N/A   Scattered Clouds
12:51 PM 57.9 °F - 26.1 °F 30% 30.01 in 10.0 mi WNW 18.4 mph 23.0 mph N/A   Partly Cloudy
1:51 PM 55.4 °F - 23.0 °F 29% 30.00 in 10.0 mi WNW 16.1 mph 21.9 mph N/A   Mostly Cloudy
2:51 PM 57.9 °F - 24.1 °F 27% 30.00 in 10.0 mi NW 13.8 mph 24.2 mph N/A   Mostly Cloudy
3:51 PM 57.9 °F - 23.0 °F 26% 29.98 in 10.0 mi North 9.2 mph 18.4 mph N/A   Mostly Cloudy
4:51 PM 57.9 °F - 21.9 °F 25% 29.98 in 10.0 mi NW 16.1 mph 21.9 mph N/A   Mostly Cloudy
5:51 PM 57.0 °F - 21.9 °F 26% 29.97 in 10.0 mi NW 12.7 mph 18.4 mph N/A   Scattered Clouds
6:51 PM 54.0 °F - 21.9 °F 29% 29.98 in 10.0 mi West 12.7 mph - N/A   Scattered Clouds
7:51 PM 53.1 °F - 24.1 °F 32% 29.99 in 10.0 mi West 6.9 mph - N/A   Overcast
8:51 PM 50.0 °F - 27.0 °F 41% 30.01 in 10.0 mi WNW 5.8 mph - N/A   Overcast
9:51 PM 48.0 °F - 27.0 °F 44% 30.03 in 10.0 mi WNW 3.5 mph - N/A   Mostly Cloudy
10:51 PM 41.0 °F - 33.1 °F 73% 30.04 in 10.0 mi Calm Calm - N/A   Overcast
11:51 PM 37.0 °F - 32.0 °F 82% 30.05 in 10.0 mi Calm Calm - N/A   Clear